Weather in Mutoray

Russia / Krasnoyarsk Krai     61°01′24″N   100°45′22″E
temp.,
°C
wind,
m/s
gust,
m/s
humid.,
%
clouds,
%
prec.,
mm/h
press.,
hPa
HPBL,
m
9 may, sun
sun901:00+2nne269971 0.1 1011161
04:00−2e269994 0.0 1013105
07:00+2e269696 0.0 1014408
10:00+9e477360 0.0 10141080
13:00+10ene57629 0.9 10141535
16:00+10ene476362 0.3 10151662
19:00+7ne487316 0.4 1017329
22:00+3nne310905 0.0 1019206
10 may, mon
mon1001:00+1nne37915 0.0 1021135
04:000nne24925 0.0 102272
07:00+5nne36786 0.0 1022302
10:00+9nne356292 0.2 10211409
13:00+10ne455392 0.5 10211580
16:00+10ne455783 0.1 10211098
19:00+8ene36688 0.1 1022442
22:00+4ene3779100 0.0 1023323
11 may, tue
tue1101:00+3ene2582100 0.1 1024394
04:00+2n1282100 0.1 102385
07:00+3ne3481100 0.2 1024582
10:00+4ene457291 0.2 1024962
13:00+6ne4551100 0.3 10241825
16:00+6ne5548100 0.1 10231700
19:00+5ene455458 0.1 10231065
22:00+1ne22705 0.0 102428
12 may, wed
wed1201:00−1nne22765 0.0 102320
04:00−1nne23805 0.0 102383
07:00+3nne35575 0.0 1022875
10:00+5nne4542100 0.1 10211959
13:00+7nne3535100 0.1 10202330
16:00+8nne4533100 0.0 10192342
19:00+7ne244194 0.0 1019226
22:00+2wsw115481 0.0 102010
13 may, thu
thu1301:00+1wsw115991 0.0 102010
04:000w22676 0.0 102011
07:00+6wnw23505 0.0 1019317
10:00+9wnw343362 0.0 10182289
13:00+11wnw4432100 0.0 10162489
16:00+11w453389 0.0 10142334
19:00+10wnw364577 0.0 1013580
22:00+6wsw2667100 0.1 1013109